Patna, India

11:43 PM IST on April 28, 2017 (GMT +0530)
Patna

Weather History for VEPT - May, 2014

Change the Weather History Date:

Monday, May 19, 2014

  Actual Average Record
Temperature  
Mean Temperature 92 °F -  
Max Temperature 109 °F 97 °F 109 °F (2014)
Min Temperature 75 °F 82 °F 73 °F (1999)
Cooling Degree Days 27    
Growing Degree Days 42 (Base 50)    
Moisture  
Dew Point 54 °F    
Average Humidity 24    
Maximum Humidity 51    
Minimum Humidity 6    
Precipitation  
Precipitation 0.00 in - - ()
Sea Level Pressure  
Sea Level Pressure 29.65 in    
Wind  
Wind Speed 4 mph ()    
Max Wind Speed 12 mph    
Max Gust Speed 23 mph    
Visibility 2.5 miles    
Events      
Averages and records for this station are not official NWS values.
T = Trace of Precipitation, MM = Missing Value Source: Averaged Metar Reports

Daily Weather History Graph

Daily Weather History Graph

Search for Another Location

Airport or City:

Trip Planner

Search our weather history database for the weather conditions in past years. The results will help you decide how hot, cold, wet, or windy it might be!

Date:

Astronomy

May. 19, 2014 Rise Set
Actual Time 5:02 AM IST 6:29 PM IST
Civil Twilight 4:37 AM IST 6:54 PM IST
Nautical Twilight 4:07 AM IST 7:24 PM IST
Astronomical Twilight 3:36 AM IST 7:56 PM IST
Moon 10:50 PM IST (5/19) 9:20 AM IST (5/19)
Length of Visible Light 14h 17m
Length of Day
13h 27m
Waning Gibbous, 75% of the Moon is Illuminated
May 19
Waning Gibbous
May 21
Last Quarter
May 29
New
Jun 6
First Quarter
Jun 13
Full

Hourly Weather History & Observations

Time (IST) Temp. Heat Index Dew Point Humidity Pressure Visibility Wind Dir Wind Speed Gust Speed Precip Events Conditions
2:30 AM 84 °F - 56 °F 29% 29.65 in 2 mi West 3.5 mph - -   Haze
5:20 AM 78.8 °F - 59.0 °F 51% 29.68 in 1.6 mi Calm Calm - N/A   Haze
5:30 AM 79 °F - 59 °F 40% 29.67 in 1 mi Calm Calm - -   Haze
6:20 AM 82.4 °F 82.5 °F 59.0 °F 45% 29.71 in 1.9 mi West 2.3 mph - N/A   Haze
7:20 AM 86.0 °F 85.4 °F 59.0 °F 40% 29.71 in 1.9 mi West 3.5 mph - N/A   Haze
8:20 AM 89.6 °F 88.9 °F 59.0 °F 36% 29.71 in 1.9 mi NW 2.3 mph - N/A   Haze
8:30 AM 94 °F - 58 °F 20% 29.74 in 1 mi Calm Calm - -   Haze
9:20 AM 95.0 °F 94.4 °F 59.0 °F 30% 29.71 in 2.5 mi Calm Calm - N/A   Haze
10:20 AM 98.6 °F 98.5 °F 59.0 °F 27% 29.71 in 3.1 mi WNW 6.9 mph - N/A   Haze
11:20 AM 102.2 °F 100.9 °F 55.4 °F 21% 29.68 in 3.7 mi NNW 11.5 mph 23.0 mph N/A   Unknown
11:30 AM 104 °F - 54 °F 11% 29.71 in 2 mi West 4.6 mph - -  
12:20 PM 105.8 °F - 51.8 °F 17% 29.68 in 3.7 mi NNW 11.5 mph 23.0 mph N/A   Unknown
1:20 PM 107.6 °F - 51.8 °F 16% 29.65 in 3.7 mi WNW 11.5 mph 23.0 mph N/A   Unknown
2:20 PM 107.6 °F - 51.8 °F 16% 29.62 in 3.7 mi NNW 11.5 mph 23.0 mph N/A   Unknown
2:30 PM 108 °F - 46 °F 6% 29.64 in 2 mi NW 6.9 mph - -  
3:20 PM 109.4 °F - 50.0 °F 14% 29.59 in 3.7 mi NNW 11.5 mph 23.0 mph N/A   Unknown
4:20 PM 105.8 °F - 50.0 °F 15% 29.56 in 3.7 mi NNW 11.5 mph 23.0 mph N/A   Unknown
5:20 PM 104.0 °F - 46.4 °F 14% 29.56 in 3.7 mi WNW 11.5 mph 23.0 mph N/A   Unknown
5:30 PM 104 °F - 47 °F 8% 29.60 in 2 mi NW 4.6 mph - -  
7:20 PM 100.4 °F - 50.0 °F 18% 29.59 in 3.1 mi WNW 6.9 mph - N/A   Haze
8:20 PM 95.0 °F 93.7 °F 57.2 °F 28% 29.62 in 3.1 mi West 3.5 mph - N/A   Haze
8:30 PM 95 °F - 57 °F 19% 29.61 in 2 mi West 2.3 mph - -   Haze
11:30 PM 86 °F - 56 °F 26% 29.65 in 1 mi West 3.5 mph - -   Haze